Falfurrias, TX

1:39 PM CST on January 17, 2017 (GMT -0600)
Falfurrias

Weather History for KBKS - May, 2014

Change the Weather History Date:

Monday, May 26, 2014

  Actual Average (KNQI) Record (KNQI)
Temperature  
Mean Temperature 84 °F -  
Max Temperature 91 °F 88 °F 93 °F (1997)
Min Temperature 76 °F 70 °F 69 °F (1999)
Cooling Degree Days 18    
Growing Degree Days 34 (Base 50)    
Moisture  
Dew Point 72 °F    
Average Humidity 74    
Maximum Humidity 89    
Minimum Humidity 44    
Precipitation  
Precipitation 0.00 in - - ()
Sea Level Pressure  
Sea Level Pressure 29.93 in    
Wind  
Wind Speed 10 mph (SE)    
Max Wind Speed 20 mph    
Max Gust Speed 26 mph    
Visibility 9 miles    
Events      
Averages and records for this station are not official NWS values.
T = Trace of Precipitation, MM = Missing Value Source: NWS Daily Summary

Daily Weather History Graph

Daily Weather History Graph

Search for Another Location

Airport or City:

Trip Planner

Search our weather history database for the weather conditions in past years. The results will help you decide how hot, cold, wet, or windy it might be!

Date:

Astronomy

May. 26, 2014 Rise Set
Actual Time 6:39 AM CDT 8:19 PM CDT
Civil Twilight 6:13 AM CDT 8:45 PM CDT
Nautical Twilight 5:42 AM CDT 9:16 PM CDT
Astronomical Twilight 5:10 AM CDT 9:49 PM CDT
Moon 5:09 AM CDT (5/26) 6:34 PM CDT (5/26)
Length of Visible Light 14h 32m
Length of Day
13h 40m
Waning Crescent, 5% of the Moon is Illuminated
May 26
Waning Crescent
May 28
New
Jun 5
First Quarter
Jun 12
Full
Jun 19
Last Quarter

Hourly Weather History & Observations

Time (CDT) Temp. Heat Index Dew Point Humidity Pressure Visibility Wind Dir Wind Speed Gust Speed Precip Events Conditions
12:15 AM 76.5 °F - 73.0 °F 89% 29.95 in 10.0 mi ESE 6.9 mph - N/A   Mostly Cloudy
12:35 AM 77.0 °F - 73.4 °F 89% 29.94 in 10.0 mi ESE 8.1 mph - N/A   Overcast
12:55 AM 77.0 °F - 73.2 °F 88% 29.93 in 10.0 mi SE 10.4 mph - N/A   Overcast
1:15 AM 77.2 °F - 73.4 °F 88% 29.93 in 10.0 mi SE 8.1 mph - N/A   Overcast
1:35 AM 77.2 °F - 73.4 °F 88% 29.94 in 10.0 mi SE 9.2 mph - N/A   Overcast
1:55 AM 77.2 °F - 73.4 °F 88% 29.94 in 7.0 mi ESE 5.8 mph - N/A   Overcast
2:15 AM 77.2 °F - 73.4 °F 88% 29.94 in 7.0 mi ESE 4.6 mph - N/A   Overcast
2:35 AM 77.2 °F - 73.4 °F 88% 29.94 in 7.0 mi ESE 5.8 mph - N/A   Overcast
2:55 AM 77.2 °F - 73.4 °F 88% 29.93 in 7.0 mi ESE 5.8 mph - N/A   Overcast
3:15 AM 77.0 °F - 73.2 °F 88% 29.93 in 7.0 mi ESE 6.9 mph - N/A   Overcast
3:35 AM 77.0 °F - 73.0 °F 88% 29.92 in 7.0 mi East 6.9 mph - N/A   Overcast
3:55 AM 77.2 °F - 73.4 °F 88% 29.92 in 7.0 mi East 5.8 mph - N/A   Overcast
4:15 AM 77.2 °F - 73.4 °F 88% 29.92 in 7.0 mi East 6.9 mph - N/A   Overcast
4:35 AM 77.2 °F - 73.0 °F 87% 29.91 in 7.0 mi East 8.1 mph - N/A   Overcast
4:55 AM 77.2 °F - 73.2 °F 88% 29.93 in 7.0 mi ESE 6.9 mph - N/A   Overcast
5:15 AM 77.2 °F - 73.0 °F 87% 29.92 in 7.0 mi East 11.5 mph - N/A   Overcast
5:35 AM 77.2 °F - 73.2 °F 88% 29.93 in 7.0 mi ESE 8.1 mph - N/A   Overcast
5:55 AM 77.2 °F - 73.2 °F 88% 29.93 in 7.0 mi ESE 6.9 mph - N/A   Overcast
6:15 AM 77.2 °F - 73.4 °F 88% 29.93 in 7.0 mi ESE 5.8 mph - N/A   Overcast
6:35 AM 77.0 °F - 73.0 °F 88% 29.93 in 7.0 mi ESE 6.9 mph - N/A   Overcast
6:55 AM 77.0 °F - 72.9 °F 87% 29.94 in 7.0 mi ESE 6.9 mph - N/A   Overcast
7:15 AM 77.0 °F - 73.0 °F 88% 29.95 in 7.0 mi SE 6.9 mph - N/A   Overcast
7:35 AM 77.0 °F - 72.9 °F 87% 29.95 in 7.0 mi East 9.2 mph - N/A   Overcast
7:55 AM 77.0 °F - 73.0 °F 88% 29.95 in 7.0 mi ESE 8.1 mph - N/A   Overcast
8:15 AM 77.2 °F - 72.9 °F 86% 29.96 in 7.0 mi ESE 8.1 mph - N/A   Overcast
8:35 AM 77.0 °F - 72.7 °F 86% 29.96 in 7.0 mi SE 10.4 mph - N/A   Overcast
8:55 AM 77.4 °F - 72.3 °F 84% 29.97 in 7.0 mi SE 10.4 mph 17.3 mph N/A   Overcast
9:15 AM 78.1 °F - 72.5 °F 83% 29.97 in 10.0 mi SE 10.4 mph - N/A   Overcast
9:35 AM 78.8 °F - 72.3 °F 80% 29.98 in 10.0 mi SE 12.7 mph 17.3 mph N/A   Overcast
10:15 AM 79.7 °F - 72.1 °F 78% 29.97 in 10.0 mi SE 9.2 mph - N/A   Overcast
10:35 AM 81.1 °F 85.4 °F 71.8 °F 73% 29.96 in 10.0 mi SSE 13.8 mph 20.7 mph N/A   Overcast
10:55 AM 82.2 °F 86.9 °F 71.6 °F 70% 29.96 in 7.0 mi SE 18.4 mph - N/A   Overcast
11:15 AM 83.8 °F 88.6 °F 70.9 °F 65% 29.96 in 10.0 mi SE 17.3 mph 23.0 mph N/A   Overcast
11:35 AM 83.5 °F 88.0 °F 70.5 °F 65% 29.96 in 10.0 mi SE 16.1 mph 21.9 mph N/A   Overcast
11:55 AM 84.6 °F 89.4 °F 70.5 °F 63% 29.96 in 10.0 mi SSE 17.3 mph 21.9 mph N/A   Overcast
12:15 PM 84.9 °F 89.7 °F 70.7 °F 62% 29.96 in 10.0 mi SSE 17.3 mph 24.2 mph N/A   Mostly Cloudy
12:35 PM 86.0 °F 90.4 °F 69.6 °F 58% 29.95 in 10.0 mi SSE 19.6 mph 25.3 mph N/A   Mostly Cloudy
1:15 PM 86.5 °F 90.7 °F 68.9 °F 56% 29.94 in 10.0 mi SSE 18.4 mph 25.3 mph N/A   Overcast
1:35 PM 89.2 °F 93.6 °F 69.1 °F 51% 29.93 in 10.0 mi SSE 15.0 mph 18.4 mph N/A   Scattered Clouds
1:55 PM 89.1 °F 92.1 °F 67.3 °F 48% 29.93 in 10.0 mi SSE 17.3 mph 26.5 mph N/A   Mostly Cloudy
2:15 PM 91.0 °F 95.6 °F 68.9 °F 48% 29.92 in 10.0 mi South 16.1 mph 21.9 mph N/A   Mostly Cloudy
2:35 PM 89.6 °F 93.4 °F 68.2 °F 49% 29.92 in 10.0 mi SSE 16.1 mph - N/A   Mostly Cloudy
2:55 PM 89.8 °F 92.9 °F 67.3 °F 47% 29.92 in 10.0 mi South 17.3 mph 20.7 mph N/A   Mostly Cloudy
3:15 PM 89.1 °F 92.9 °F 68.0 °F 50% 29.91 in 10.0 mi SE 10.4 mph 18.4 mph N/A   Overcast
3:35 PM 89.8 °F 93.3 °F 67.5 °F 48% 29.90 in 10.0 mi SSE 13.8 mph 20.7 mph N/A   Overcast
3:55 PM 89.8 °F 93.3 °F 67.6 °F 48% 29.90 in 10.0 mi SSE 13.8 mph 19.6 mph N/A   Overcast
4:15 PM 89.1 °F 92.9 °F 68.0 °F 50% 29.89 in 10.0 mi SE 11.5 mph 19.6 mph N/A   Overcast
4:35 PM 89.2 °F 92.0 °F 66.6 °F 47% 29.89 in 10.0 mi SSE 12.7 mph - N/A   Overcast
4:55 PM 89.6 °F 92.2 °F 66.4 °F 46% 29.88 in 10.0 mi SE 10.4 mph 17.3 mph N/A   Overcast
5:15 PM 89.6 °F 92.2 °F 66.2 °F 46% 29.87 in 10.0 mi SSE 13.8 mph 19.6 mph N/A   Overcast
5:35 PM 90.5 °F 92.9 °F 65.8 °F 44% 29.88 in 10.0 mi SSE 12.7 mph - N/A   Overcast
5:55 PM 89.4 °F 92.7 °F 67.5 °F 48% 29.88 in 10.0 mi ESE 10.4 mph 16.1 mph N/A   Overcast
6:15 PM 86.9 °F 93.7 °F 72.7 °F 62% 29.88 in 10.0 mi East 10.4 mph 16.1 mph N/A   Overcast
6:35 PM 86.0 °F 93.4 °F 73.4 °F 66% 29.88 in 10.0 mi East 13.8 mph 18.4 mph N/A   Overcast
6:55 PM 85.6 °F 93.0 °F 73.8 °F 67% 29.88 in 10.0 mi East 17.3 mph 23.0 mph N/A   Mostly Cloudy
7:15 PM 84.6 °F 91.7 °F 73.9 °F 70% 29.87 in 10.0 mi ESE 16.1 mph 24.2 mph N/A   Mostly Cloudy
7:35 PM 82.6 °F 89.1 °F 74.3 °F 76% 29.89 in 10.0 mi East 15.0 mph 21.9 mph N/A   Scattered Clouds
7:55 PM 81.9 °F 87.7 °F 73.9 °F 77% 29.90 in 10.0 mi East 13.8 mph 24.2 mph N/A   Mostly Cloudy
8:15 PM 81.5 °F 87.2 °F 74.1 °F 78% 29.90 in 10.0 mi East 15.0 mph 23.0 mph N/A   Mostly Cloudy
8:35 PM 80.8 °F 85.9 °F 74.1 °F 80% 29.91 in 10.0 mi ESE 16.1 mph 21.9 mph N/A   Overcast
8:55 PM 80.6 °F 85.7 °F 74.3 °F 81% 29.91 in 10.0 mi East 12.7 mph 19.6 mph N/A   Overcast
9:15 PM 79.9 °F - 74.1 °F 82% 29.92 in 10.0 mi ESE 12.7 mph 20.7 mph N/A   Overcast
9:35 PM 79.7 °F - 74.1 °F 83% 29.93 in 10.0 mi ESE 16.1 mph 19.6 mph N/A   Mostly Cloudy
9:55 PM 79.3 °F - 74.1 °F 84% 29.93 in 10.0 mi ESE 11.5 mph 19.6 mph N/A   Mostly Cloudy
10:15 PM 79.7 °F - 74.3 °F 83% 29.94 in 10.0 mi SE 12.7 mph 21.9 mph N/A   Overcast
10:35 PM 79.5 °F - 74.3 °F 84% 29.95 in 10.0 mi ESE 10.4 mph - N/A   Overcast
10:55 PM 79.3 °F - 74.3 °F 84% 29.97 in 10.0 mi ESE 10.4 mph 16.1 mph N/A   Overcast
11:15 PM 79.3 °F - 74.3 °F 84% 29.97 in 10.0 mi SE 10.4 mph - N/A   Overcast
11:35 PM 79.2 °F - 74.3 °F 85% 29.95 in 10.0 mi SE 11.5 mph 18.4 mph N/A   Mostly Cloudy
11:55 PM - - - N/A% 29.94 in 10.0 mi SE 13.8 mph 19.6 mph N/A   Scattered Clouds